Location: Newark
(42.7133°N, 87.7910°W)
Time: 04:40:59
(UTC+00:00)

Vanguard 1 Rocket - Pass Details

Date: 21 September 2019
Orbit: 650 x 4226 km, 34.3° (Epoch: 17 October)

Event Time Altitude Azimuth Distance (km) Brightness Sun altitude
Rises 02:59:42 0° 269° (W) 7,227 12.6 -32.9°
Reaches altitude 10° 03:05:28 10° 265° (W) 5,646 11.9 -33.7°
Enters shadow 03:19:01 50° 205° (SSW) 2,118 8.9 -35.6°
